Location: Unspecified
(0.0000°N, 0.0000°E)
Time: 00:21:41
(UTC+01:00)

Vanguard 1 - Visible Passes

Search period start: 20 February 2017 00:00
Search period end: 02 March 2017 00:00
Orbit: 652 x 3832 km, 34.3° (Epoch: 18 February)

Date Brightness Start Highest point End Pass type
(mag) Time Alt. Az. Time Alt. Az. Time Alt. Az.
20 Feb 14.0 00:08:02 10° NW 00:11:39 16° NNW 00:11:39 16° NNW visible
20 Feb 12.7 03:04:22 32° ESE 03:04:22 32° ESE 03:08:44 10° ESE visible
20 Feb 12.1 05:17:06 32° WSW 05:19:24 34° SW 05:27:36 10° SSE visible
20 Feb 13.7 19:34:27 10° NW 19:44:34 19° N 19:57:44 10° NNE visible
20 Feb 13.7 22:03:30 10° NNW 22:18:39 22° NNE 22:18:39 22° NNE visible
21 Feb 14.1 00:29:29 10° NW 00:31:22 13° NW 00:31:22 13° NW visible
21 Feb 12.4 03:24:22 41° SE 03:24:22 41° SE 03:29:54 10° SE visible
21 Feb 12.4 05:37:06 21° WSW 05:40:30 24° SW 05:47:40 10° S visible
21 Feb 13.8 19:58:02 10° NW 20:08:17 17° N 20:21:01 10° NE visible
21 Feb 13.7 22:25:26 10° NNW 22:38:23 25° N 22:38:23 25° N visible
22 Feb 14.0 00:50:54 10° NW 01:31:37 - ESE 00:51:05 10° NW visible
22 Feb 12.3 03:44:20 45° SSE 03:44:20 45° SSE 03:50:50 10° SE visible
22 Feb 12.7 05:57:04 13° WSW 06:01:49 16° SW 06:07:11 10° S visible
22 Feb 13.8 20:21:14 10° NNW 20:32:13 17° N 20:45:21 10° NE visible
22 Feb 13.6 22:47:01 10° NNW 22:58:07 26° N 22:58:07 26° N visible
23 Feb13.701:51:31ESE01:51:31ESE01:10:49NWvisible
23 Feb 12.3 04:04:15 43° S 04:04:15 43° S 04:11:32 10° SSE visible
23 Feb 13.8 20:43:48 10° NNW 20:56:11 19° NNE 21:05:09 15° NE visible
23 Feb 13.7 23:08:24 10° NNW 23:17:52 27° NNW 23:17:52 27° NNW visible
24 Feb 13.5 02:11:25 14° ESE 02:11:25 14° ESE 02:12:31 10° ESE visible
24 Feb 12.4 04:24:08 36° SSW 04:24:08 36° SSW 04:32:01 10° SSE visible
24 Feb 13.6 21:05:44 10° NNW 21:19:57 22° NNE 21:24:56 20° NE visible
24 Feb 13.7 23:29:41 10° NW 23:37:39 26° NNW 23:37:39 26° NNW visible
25 Feb 13.3 02:31:15 20° SE 02:31:15 20° SE 02:33:43 10° SE visible
25 Feb 12.7 04:43:58 27° SW 04:43:58 27° SW 04:52:17 10° SSE visible
25 Feb 13.5 21:27:14 10° NNW 21:43:25 26° NNE 21:44:45 26° NNE visible
25 Feb 13.8 23:50:59 10° NW 23:57:28 24° NNW 23:57:28 24° NNW visible
26 Feb 13.1 02:51:04 25° SE 02:51:04 25° SE 02:54:42 10° SE visible
26 Feb 12.9 05:03:47 19° SW 05:04:40 19° SW 05:12:11 10° S visible
26 Feb 13.7 19:25:34 10° NNW 19:33:59 15° N 19:44:18 10° NE visible
26 Feb 13.4 21:48:29 10° NNW 22:04:36 31° NNE 22:04:36 31° NNE visible
27 Feb 13.9 00:12:23 10° NW 00:17:19 21° NW 00:17:19 21° NW visible
27 Feb 13.0 03:10:50 28° SSE 03:10:50 28° SSE 03:15:29 10° SSE visible
27 Feb 13.1 05:23:33 12° SW 05:26:29 13° SW 05:31:20 10° S visible
27 Feb 13.7 19:47:27 10° NNW 19:57:38 17° NNE 20:10:06 10° NE visible
27 Feb 13.3 22:09:37 10° NNW 22:24:29 37° N 22:24:29 37° N visible
28 Feb 14.0 00:33:57 10° NW 01:17:52 - SE 00:37:13 17° NW visible
28 Feb 12.9 03:30:35 28° S 03:30:35 28° S 03:36:05 10° SSE visible
28 Feb 13.6 20:08:48 10° NNW 20:21:05 20° NNE 20:31:43 15° NE visible
28 Feb 13.2 22:30:43 10° NW 22:44:27 40° N 22:44:27 40° N visible
01 Mar 13.8 00:55:46 10° NW 01:37:34 - SE 00:57:11 13° NW visible
01 Mar 13.0 03:50:17 26° S 03:50:17 26° S 03:56:31 10° SSE visible
01 Mar 13.5 20:29:51 10° NNW 20:44:13 25° NNE 20:51:43 22° NE visible
01 Mar 13.2 22:51:52 10° NW 23:04:27 42° NNW 23:04:27 42° NNW visible
